sat.trackr.live / text

‹ back to catalog

GAOFEN-3 02

NORAD 49495 · 2021-109A

PAYLOAD ACTIVE UNKNOWN

§ Identity

Operator
Country
PRC
Launch date
2021-11-22
Launch site
JSC
Launch vehicle
Mass (kg)
RCS (m²)

External: N2YO · Heavens-Above · Gunter

§ Orbital elements

Epoch: 2026-09-12T04:30:18.351360Z

Period
99.85 min
Inclination
98.4119°
Eccentricity
0.0003997
Mean motion
14.42216833 rev/d
Perigee alt
748.3 km
Apogee alt
754.0 km
Semi-major
7,129.3 km
B*
2.0727e-5
RAAN
262.0617°
Arg perigee
85.5624°
Mean anomaly
274.6022°
Rev number
25,285

§ Raw data

GAOFEN-3 021 49495U 21109A   26255.18771240  .00000025  00000+0  20727-4 0  99922 49495  98.4119 262.0617 0003997  85.5624 274.6022 14.42216833252856

JSON: /api/v1/satellites/49495 · /tle

For live sub-satellite position, see the globe view (requires WebGL).

§ Visibility from observer

Set your observer location to see the next 7 days of passes ≥ 10°. The values pass through the URL so the page stays shareable.

No JS? Fill the form by hand. The geolocation button needs JavaScript.

§ Radio — SatNOGS DB

ModeDescriptionDownlinkUplink
FM S-band telemetry 2.212 GHz

1 transmitter · refreshed weekly from db.satnogs.org